sat.trackr.live / text

‹ back to catalog

STARLINK-4112

NORAD 52861 · 2022-062AH

PAYLOAD ACTIVE UNKNOWN

§ Identity

Operator
Country
US
Launch date
2022-06-17
Launch site
AFETR
Launch vehicle
Mass (kg)
RCS (m²)

Purposes: comms

External: N2YO · Heavens-Above · Gunter

§ Orbital elements

Epoch: 2026-05-24T23:14:42.333792Z

Period
95.44 min
Inclination
53.2144°
Eccentricity
0.0001446
Mean motion
15.08842087 rev/d
Perigee alt
538.7 km
Apogee alt
540.7 km
Semi-major
6,917.9 km
B*
2.5791e-5
RAAN
41.7031°
Arg perigee
90.3140°
Mean anomaly
269.8018°
Rev number
21,744

§ Raw data

STARLINK-41121 52861U 22062AH  26144.96854553  .00000123  00000+0  25791-4 0  99992 52861  53.2144  41.7031 0001446  90.3140 269.8018 15.08842087217446

JSON: /api/v1/satellites/52861 · /tle

For live sub-satellite position, see the globe view (requires WebGL).

§ Visibility from observer

Set your observer location to see the next 7 days of passes ≥ 10°. The values pass through the URL so the page stays shareable.

No JS? Fill the form by hand. The geolocation button needs JavaScript.